weather.gov     
National Weather Service

Weather Roundup
NWS Homepage
This page is being discontinued on March 12, 2014.
The same data is available at this site. Please update your bookmarks.
Thank you, and we apologize for the inconvenience.
Please send an email to SR-SRH.Webmaster@noaa.gov with any concerns.


Current Version
Previous Version:    01  02  03  04  05  06  07  08  09  10  11  12  13  14  15  16  17  18  19  20  21  22  23  24  25  26  27  28  29  30  
   31  32  33  34  35  36  37  38  39  40  41  42  43  44  45  46  47  48  49  50  51  52  53  54  55  56  57  58  59  60  
[Printable]
763
NZUS59 KLOT 201010
HRRLOT

CHICAGO AREA WEATHER ROUNDUP
NATIONAL WEATHER SERVICE CHICAGO/ROMEOVILLE IL
500 AM CDT MON OCT 20 2014

NOTE: "FAIR" INDICATES FEW OR NO CLOUDS BELOW 12,000 FEET WITH NO
SIGNIFICANT WEATHER AND/OR OBSTRUCTIONS TO VISIBILITY.

* THESE STATIONS ARE NOT UNDER NWS QUALITY CONTROL. THEY ALSO MAY NOT
  REPORT WEATHER SUCH AS PRECIPITATION OR FOG.

ILZ005-006-012>014-019>023-201100-
NORTHEAST ILLINOIS

CITY           SKY/WX    TMP DP  RH WIND       PRES   REMARKS
OHARE          PTCLDY    50  43  77 SW6       29.81F
MIDWAY         PTCLDY    50  45  83 SW5       29.82F
AURORA         CLEAR     44  40  85 S3        29.82F
LANSING*       CLEAR     48  44  85 SW8G16    29.85S
JOLIET*        CLEAR     46  43  91 S3        29.84F
WAUKEGAN       MOCLDY    50  43  77 SW6       29.78F
DUPAGE AIRPORT PTCLDY    44  42  93 SE6       29.81F
WHEELING       PTCLDY    51  43  74 S6        29.81F
KANKAKEE*      PTCLDY    50  45  83 S9        29.86F
MORRIS*        CLEAR     48  46  91 SW6       29.82F
LEWIS AIRPORT* PTCLDY    47  45  93 SW8       29.83F
NORTHERLY IS     N/A     51  44  77 W13         N/A
$$

WIZ051-052-058>065-066-070>072-201100-
SOUTHEAST WISCONSIN

CITY           SKY/WX    TMP DP  RH WIND       PRES   REMARKS
MILWAUKEE      CLEAR     49  42  77 SW7       29.78S
KENOSHA*       MOCLDY    48  43  82 W10       29.79S
RACINE*        CLEAR     49  42  77 W10       29.79S
BURLINGTON     CLEAR     43  41  92 SW6       29.79S
WAUKESHA       CLEAR     43  41  93 W3        29.79S
WEST BEND      CLEAR     46  41  81 W3        29.78R
$$

INZ001>003-010>013-019-020-201100-
NORTHWEST INDIANA

CITY           SKY/WX    TMP DP  RH WIND       PRES   REMARKS
GARY*          PTCLDY    52  45  76 SW12      29.84F
MICHIGAN CITY* NOT AVBL
RENSSELAER*    NOT AVBL
VALPARAISO     PTCLDY    48  43  82 SW8       29.86F
$$

LMZ740>746-201100-
SOUTHERN LAKE MICHIGAN

STATION/POSITION TIME  SKY/WX   TEMP WIND        PRES    VSBY
                                AIR  DIR/SP/G
                 (UTC)          (F)  (DEG/KT/KT) (MB)    (MI)
HARRISON CRIB    1000            54  240/ 22/ 29   N/A
BURNHAM HARBOR   1000            51  230/ 12/ 15   N/A
CALUMET HARBOR   1000            51  210/ 10/ 13 1008.8F
BURNS HARBOR     NOT AVBL
MICHIGAN CITY    1000            51  170/ 12/ 14   N/A
$$

ABBREVIATIONS USED IN REMARKS
   TC - TEMPERATURE IN CELSIUS
  WCI - WIND CHILL INDEX
   HX - HEAT INDEX
  VSB - VISIBILITY
$$




U.S. Dept. of Commerce
NOAA National Weather Service
1325 East West Highway
Silver Spring, MD 20910
E-mail: w-nws.webmaster@noaa.gov
Page last modified: May 16, 2007
NATIONAL WEATHER SERVICE: for Safety, for Work, for Fun - FOR LIFE